Tracking 31033 objects as of 14-Jul-2025
HD Live streaming from Space Station
objects crossing your sky now

STARLINK-31369

Track STARLINK-31369 now!
10-day predictions
STARLINK-31369 is classified as:


NORAD ID: 58975
Int'l Code: 2024-031L
Perigee: 481.8 km
Apogee: 483.2 km
Inclination: 53.2 °
Period: 94.1 minutes
Semi major axis: 6853 km
RCS: Unknown
Launch date: February 15, 2023
Source: United States (US)
Launch site: AIR FORCE WESTERN TEST RANGE (AFWTR)
Your satellite tracking list
Your tracking list is empty




NASA's NSSDC Master Catalog

Two Line Element Set (TLE):
1 58975U 24031L   25195.62331440 -.00002445  00000-0 -70556-4 0  9993
2 58975  53.1600 322.5210 0001056 100.0573 260.0547 15.30159912 80068
Source of the keplerian elements: AFSPC